SL-8 R/B, 15625

Orbit data source: Space-Track

SL-8 R/B, 15625 is space debris in LEO originally from a launch on Thu, 21 Mar 1985 UTC launched from the Plesetsk Missile And Space Complex (PKMTR). Debris objects in space refer to the collection of defunct objects orbiting the Earth. Examples of debris include non-operational satellites, rocket bodies, and fragments generated from explosions, collisions, or faulty payload assembly.

Loading next visibility...
Identifier
15625, 1985-023J
Orbit
LEO
Country
Flag of CISCIS
Related business
Manufacturer
Omsk Av. Zav.
Mission
Spacecraft
Bus & Motor
S3, Unknown motor
Mass
1,434 kg wet, 1,434 kg dry
Launch date (UTC)
1985-03-21 (41 years ago)
Launch vehicle
Unknown
Launch site
Plesetsk Missile And Space Complex (PKMTR)
Object type
Payload
Rocket body
Debris
Shape & HBR
Unknown
Radar Cross Section
Large (>1 m²)

Expand to show TLE details & history
Last TLE update: 18 hours ago

TLE from 18 hours ago
0 SL-8 R/B
1 15625U 85023J   25348.87397674 -.00000008  00000-0  61706-4 0  9993
2 15625  74.0552 252.6110 0146460 335.9055  87.4511 12.19914060694145
Epoch: 2025-12-14T20:58Z
TLE epoch observation values (Epoch: 2025-12-14T20:58:31.590Z)
Latitude
60.74896°
Longitude
-115.29252°
Altitude
1,599.414 km
Speed
7.077 km/s
True Right ascension
18h 52m 28s
True Declination
60° 37' 03"
Sunlit
Object was in daylight at epoch
Visualization orbit readout
Latitude
Unknown
Longitude
Unknown
Altitude
Unknown
Speed
Unknown
Apparent Right ascension
Unknown
Apparent Declination
Unknown
Sunlit
N/A
Visualization observer readout
Local Sidereal Time
13:25:43
Azimuth
Unknown
Elevation
Unknown
Doppler factor
Unknown
Orbital elements
Apogee altitude
1,707.496 km
Perigee altitude
1,474.07 km
Semi-major axis
7,968.92 km
Eccentricity
0.01465
Inclination
74.0552°
RAAN
252.611°
Arg. of periapsis
335.9055°
True anomaly
89.12887°
Mean anomaly
87.4511°
Eccentric anomaly
88.28988°
Mean motion
3.05101 °/min
Orbital period
117.99 mins
BSTAR
0.000061706
Loading maneuver chart data...
Computing Atmospheric mass density...
Loading historical data...
Loading historical data...
Loading historical data...
Loading historical data...
Loading historical data...
Loading historical data...
Loading historical data...

Documentation

Showing up to 5 results
|